FW7063 Weather Reports


time (UTC)temp
F
wind
direction
speed
knots
gust
knots
rain 1hr
in
rain 24hr
in
rain mn
in
humidity
%
barometer
mb
20260506073103 49 324 6.1 8.7 0.00 0.00 0.00 71 1012.2
20260506072603 49 336 6.1 8.7 0.00 0.00 0.00 71 1012.2
20260506072104 49 95 4.3 7.0 0.00 0.00 0.00 70 1012.5
20260506071603 49 110 2.6 8.7 0.00 0.00 0.00 71 1012.5
20260506071103 49 118 2.6 11.3 0.00 0.00 0.00 72 1012.5
20260506070604 49 288 4.3 9.6 0.00 0.00 0.00 71 1012.2
20260506070103 49 348 7.0 9.6 0.00 0.00 0.00 73 1012.2
20260506062104 48 125 2.6 7.0 0.00 0.00 0.00 76 1011.9
20260506061603 47 27 1.7 5.2 0.00 0.00 0.00 76 1011.9
20260506061104 47 18 0.9 6.1 0.00 0.00 0.00 76 1011.9
20260506060603 47 30 2.6 7.0 0.00 0.00 0.00 77 1011.9
20260506060105 47 19 0.9 4.3 0.00 0.00 0.00 77 1011.9
20260506051103 47 23 1.7 2.6 0.00 0.00 0.00 79 1011.9
20260506050607 46 359 2.6 5.2 0.00 0.00 0.00 79 1011.9
20260506050104 46 129 4.3 7.8 0.00 0.00 0.00 79 1012.2
20260506045104 46 352 3.5 6.1 0.00 0.00 0.00 79 1011.9
20260506044603 46 60 2.6 5.2 0.00 0.00 0.00 79 1011.9
20260506044109 46 348 1.7 5.2 0.00 0.00 0.00 79 1011.9
20260506043605 46 353 2.6 5.2 0.00 0.00 0.00 79 1011.9
20260506043105 46 335 1.7 4.3 0.00 0.00 0.00 78 1011.9
20260506042603 46 13 0.9 2.6 0.00 0.00 0.00 78 1011.9
20260506042104 46 26 5.2 7.8 0.00 0.00 0.00 78 1011.9
20260506041603 46 13 0.9 4.3 0.00 0.00 0.00 78 1011.9
20260506041104 47 352 0.0 5.2 0.00 0.00 0.00 77 1011.5
20260506040605 47 0 1.7 5.2 0.00 0.00 0.00 77 1011.5
20260506035603 47 40 2.6 4.3 0.00 0.00 0.00 77 1011.9
20260506035103 48 1 2.6 4.3 0.00 0.00 0.00 77 1011.5
20260506034603 48 13 0.9 1.7 0.00 0.00 0.00 77 1011.5
20260506034103 48 358 2.6 6.1 0.00 0.00 0.00 77 1011.5
20260506033603 48 46 2.6 4.3 0.00 0.00 0.00 78 1011.5
20260506033104 48 347 3.5 5.2 0.00 0.00 0.00 78 1011.5
20260506032603 49 99 0.9 1.7 0.00 0.00 0.00 78 1011.5
20260506032103 49 342 0.9 4.3 0.00 0.00 0.00 78 1011.5
20260506031603 49 96 2.6 4.3 0.00 0.00 0.00 78 1011.5
20260506031103 49 309 0.0 2.6 0.00 0.00 0.00 77 1011.9
20260506030603 49 52 0.9 0.9 0.00 0.00 0.00 77 1011.5
20260506030103 49 92 1.7 2.6 0.00 0.00 0.00 77 1011.5
20260506025603 49 64 0.0 1.7 0.00 0.00 0.00 77 1011.5
20260506025104 49 74 0.9 1.7 0.00 0.00 0.00 77 1011.5
20260506024603 49 75 0.9 4.3 0.00 0.00 0.00 76 1011.9
20260506024104 49 78 1.7 4.3 0.00 0.00 0.00 76 1011.9
20260506023606 49 97 1.7 4.3 0.00 0.00 0.00 76 1011.5
20260506023106 49 55 1.7 4.3 0.00 0.00 0.00 76 1011.5
20260506022603 49 71 0.9 1.7 0.00 0.00 0.00 76 1011.9
20260506022104 49 73 2.6 5.2 0.00 0.00 0.00 75 1011.9
20260506021603 49 58 2.6 5.2 0.00 0.00 0.00 75 1011.9
20260506021106 49 100 2.6 5.2 0.00 0.00 0.00 75 1011.9
20260506020603 49 67 2.6 4.3 0.00 0.00 0.00 75 1011.9
20260506020104 49 83 0.9 2.6 0.00 0.00 0.00 75 1011.9
20260506015603 49 83 0.9 6.1 0.00 0.00 0.00 74 1011.9
20260506015103 49 38 0.9 5.2 0.00 0.00 0.00 74 1011.9
20260506014604 49 65 0.9 1.7 0.00 0.00 0.00 74 1011.9
20260506014103 49 85 1.7 5.2 0.00 0.00 0.00 74 1012.2
20260506013603 49 73 0.9 1.7 0.00 0.00 0.00 74 1011.9
20260506013103 50 63 1.7 2.6 0.00 0.00 0.00 74 1011.9
20260506012603 50 73 0.9 1.7 0.00 0.00 0.00 74 1012.2
20260506012104 50 96 0.0 1.7 0.00 0.00 0.00 74 1011.9
20260506011604 50 99 1.7 2.6 0.00 0.00 0.00 74 1011.9
20260506011103 50 89 0.9 5.2 0.00 0.00 0.00 74 1011.9
20260506010604 50 86 0.9 1.7 0.00 0.00 0.00 73 1012.2
20260506010103 50 81 0.9 5.2 0.00 0.00 0.00 73 1012.2
20260506005603 50 80 0.9 2.6 0.00 0.00 0.00 73 1012.2
20260506005103 50 109 1.7 5.2 0.00 0.00 0.00 73 1012.2
20260506004603 50 46 2.6 4.3 0.00 0.00 0.00 73 1012.2
20260506004103 50 81 0.9 6.1 0.00 0.00 0.00 73 1012.2
20260506003604 50 90 1.7 6.1 0.00 0.00 0.00 72 1011.9
20260506003103 50 72 3.5 6.1 0.00 0.00 0.00 72 1011.9
20260506002603 50 62 0.9 4.3 0.00 0.00 0.00 72 1012.2
20260506002104 51 47 1.7 6.1 0.00 0.00 0.00 72 1012.2
20260506001603 51 56 1.7 6.1 0.00 0.00 0.00 72 1012.2
20260506001103 51 355 0.9 2.6 0.00 0.00 0.00 72 1012.2
20260506000603 51 10 3.5 6.1 0.00 0.00 0.00 73 1012.2
20260505235603 51 19 1.7 5.2 0.00 0.00 0.00 75 1012.2
20260505235103 51 2 4.3 7.0 0.00 0.00 0.00 77 1012.2
20260505234603 51 64 1.7 2.6 0.00 0.00 0.00 77 1012.2
20260505234104 51 89 0.0 2.6 0.00 0.00 0.00 77 1011.9
20260505233604 51 78 0.9 4.3 0.00 0.00 0.00 76 1011.9
20260505233105 51 98 0.0 0.9 0.00 0.00 0.00 75 1011.9
20260505232603 51 89 0.0 0.9 0.00 0.00 0.00 75 1011.9
20260505232104 52 93 1.7 4.3 0.00 0.00 0.00 75 1012.2
20260505231603 52 89 2.6 4.3 0.00 0.00 0.00 74 1011.9
20260505230604 52 72 1.7 2.6 0.00 0.00 0.00 72 1011.9
20260505225603 52 96 0.9 1.7 0.00 0.00 0.00 72 1011.9
20260505225104 52 115 0.9 2.6 0.00 0.00 0.00 71 1012.2
20260505224603 52 121 0.9 1.7 0.00 0.00 0.00 71 1011.9
20260505224103 52 93 1.7 1.7 0.00 0.00 0.00 71 1011.9
20260505223604 52 98 0.0 1.7 0.00 0.00 0.00 71 1012.2
20260505223103 52 149 0.9 1.7 0.00 0.00 0.00 70 1011.9
20260505222603 52 135 0.0 0.0 0.00 0.00 0.00 70 1011.9
20260505222103 52 132 0.9 0.9 0.00 0.00 0.00 70 1011.9
20260505221603 52 129 0.0 0.9 0.00 0.00 0.00 70 1012.2
20260505221103 52 56 0.0 0.0 0.00 0.00 0.00 70 1011.9
20260505220603 52 140 0.0 1.7 0.00 0.00 0.00 70 1011.9
20260505220103 52 131 0.9 4.3 0.00 0.00 0.00 69 1012.2
20260505215604 52 109 0.0 0.0 0.00 0.00 0.00 69 1012.2
20260505215103 52 109 0.0 0.9 0.00 0.00 0.00 69 1011.9
20260505214604 52 133 0.0 0.9 0.00 0.00 0.00 69 1011.9
20260505214103 52 125 0.9 1.7 0.00 0.00 0.00 68 1012.2
20260505213603 53 139 0.0 1.7 0.00 0.00 0.00 68 1011.9
20260505213104 53 143 1.7 2.6 0.00 0.00 0.00 68 1011.9
20260505212603 53 155 1.7 1.7 0.00 0.00 0.00 68 1011.9
20260505212103 53 93 1.7 2.6 0.00 0.00 0.00 68 1011.9
20260505211603 53 117 1.7 4.3 0.00 0.00 0.00 68 1011.9
20260505211104 54 89 0.9 5.2 0.00 0.00 0.00 68 1011.9
20260505210604 54 107 0.0 1.7 0.00 0.00 0.00 68 1011.9
20260505210103 54 118 0.9 2.6 0.00 0.00 0.00 68 1011.5
20260505205603 54 98 0.9 2.6 0.00 0.00 0.00 68 1011.5
20260505205103 54 107 0.9 1.7 0.00 0.00 0.00 68 1011.9
20260505204603 54 151 1.7 2.6 0.00 0.00 0.00 68 1011.5
20260505204103 55 112 0.9 1.7 0.00 0.00 0.00 67 1011.5
20260505203603 55 93 0.0 4.3 0.00 0.00 0.00 67 1011.5
20260505203104 55 102 0.9 1.7 0.00 0.00 0.00 68 1011.5
20260505202611 55 90 0.0 1.7 0.00 0.00 0.00 69 1011.5
20260505202103 55 104 0.0 0.9 0.00 0.00 0.00 69 1011.5
20260505201603 54 120 0.0 0.9 0.00 0.00 0.00 69 1011.5
20260505201104 54 120 0.0 0.9 0.00 0.00 0.00 69 1011.2
20260505200604 55 120 0.0 0.0 0.00 0.00 0.00 68 1011.2
20260505200103 55 120 0.0 0.0 0.00 0.00 0.00 68 1011.2
20260505195603 55 120 0.0 0.0 0.00 0.00 0.00 68 1011.2
20260505195105 55 122 0.0 0.9 0.00 0.00 0.00 68 1010.8
20260505194605 55 121 0.0 0.0 0.00 0.00 0.00 68 1010.8
20260505194103 55 121 0.0 0.0 0.00 0.00 0.00 67 1011.2
20260505193603 55 121 0.0 0.0 0.00 0.00 0.00 67 1011.2
20260505193103 55 121 0.0 0.0 0.00 0.00 0.00 67 1011.2
20260505192603 55 121 0.0 0.0 0.00 0.00 0.00 66 1010.8
20260505192105 56 122 0.0 0.9 0.00 0.00 0.00 66 1010.5
20260505191606 56 121 0.0 1.7 0.00 0.00 0.00 66 1010.5
20260505191104 56 117 0.0 0.9 0.00 0.00 0.00 65 1010.5
20260505190603 56 103 0.9 0.9 0.00 0.00 0.00 65 1010.5
20260505190104 56 98 0.9 0.9 0.00 0.00 0.00 65 1010.5
20260505185603 56 98 0.0 0.0 0.00 0.00 0.00 65 1010.8
20260505185104 56 98 0.0 0.9 0.00 0.00 0.00 65 1010.5
20260505184604 56 98 0.0 0.9 0.00 0.00 0.00 65 1010.5
20260505184104 56 98 0.9 0.9 0.00 0.00 0.00 65 1010.5
20260505183604 56 106 0.0 0.9 0.00 0.00 0.00 64 1010.2
20260505183104 56 129 0.0 0.0 0.00 0.00 0.00 65 1010.5
20260505182604 57 129 0.0 0.0 0.00 0.00 0.00 65 1010.5
20260505182103 57 124 0.9 1.7 0.00 0.00 0.00 66 1010.5
20260505181604 57 123 0.0 1.7 0.00 0.00 0.00 66 1010.5
20260505181105 57 292 0.0 0.0 0.00 0.00 0.00 66 1010.5
20260505180603 57 312 0.0 0.9 0.00 0.00 0.00 66 1010.5
20260505180104 57 312 0.9 2.6 0.00 0.00 0.00 66 1010.5
20260505175603 57 304 0.9 1.7 0.00 0.00 0.00 65 1010.5
20260505175103 57 307 1.7 1.7 0.00 0.00 0.00 65 1010.2
20260505174603 57 290 1.7 2.6 0.00 0.00 0.00 64 1010.5
20260505174104 57 309 2.6 2.6 0.00 0.00 0.00 64 1010.5
20260505173604 57 35 0.9 1.7 0.00 0.00 0.00 64 1010.5
20260505173104 58 85 0.0 0.0 0.00 0.00 0.00 63 1010.5
20260505172604 58 85 0.0 0.0 0.00 0.00 0.00 63 1010.5
20260505172104 58 85 0.0 0.0 0.00 0.00 0.00 62 1010.5
20260505171603 58 85 0.0 0.0 0.00 0.00 0.00 62 1010.5
20260505171103 58 90 0.0 0.0 0.00 0.00 0.00 62 1010.5
20260505170604 58 85 0.0 0.0 0.00 0.00 0.00 62 1010.5
20260505170103 58 90 0.0 0.0 0.00 0.00 0.00 62 1010.5
20260505165603 58 90 0.0 0.9 0.00 0.00 0.00 62 1010.5
20260505165104 58 104 0.0 0.0 0.00 0.00 0.00 62 1010.5
20260505164604 58 104 0.0 0.9 0.00 0.00 0.00 60 1010.5
20260505164104 58 101 0.0 0.9 0.00 0.00 0.00 60 1010.5
20260505163604 58 101 0.0 0.9 0.00 0.00 0.00 60 1010.5
20260505163103 59 101 0.0 0.9 0.00 0.00 0.00 60 1010.5
20260505162604 59 89 0.0 1.7 0.00 0.00 0.00 60 1010.5
20260505162103 59 88 0.0 0.9 0.00 0.00 0.00 60 1010.5
20260505161603 59 66 0.0 0.9 0.00 0.00 0.00 60 1010.5
20260505161104 59 59 0.9 1.7 0.00 0.00 0.00 59 1010.5
20260505160604 59 87 0.0 0.9 0.00 0.00 0.00 58 1010.5
20260505160104 59 59 0.9 1.7 0.00 0.00 0.00 57 1010.5
20260505153107 59 64 1.7 1.7 0.00 0.00 0.00 57 1010.5
20260505152606 59 70 0.0 1.7 0.00 0.00 0.00 57 1010.8
20260505152104 59 73 0.9 1.7 0.00 0.00 0.00 59 1010.8
20260505151603 59 78 0.9 1.7 0.00 0.00 0.00 58 1010.5
20260505151104 59 73 1.7 1.7 0.00 0.00 0.00 58 1010.8
20260505150605 59 83 0.9 2.6 0.00 0.00 0.00 57 1010.8
20260505150103 60 73 0.9 0.9 0.00 0.00 0.00 57 1010.8
20260505140604 60 83 1.7 4.3 0.00 0.00 0.00 58 1011.2
20260505140113 60 68 0.9 2.6 0.00 0.00 0.00 58 1010.8
20260505130104 60 326 0.9 1.7 0.00 0.00 0.00 61 1011.2
20260505124604 59 111 0.9 6.1 0.00 0.00 0.00 57 1011.2
20260505124104 59 343 0.9 1.7 0.00 0.00 0.00 60 1011.2
20260505123605 59 127 0.9 2.6 0.00 0.00 0.00 61 1011.5
20260505123104 59 347 0.9 2.6 0.00 0.00 0.00 61 1011.2
20260505122606 59 323 2.6 4.3 0.00 0.00 0.00 59 1011.2
20260505122104 60 103 0.0 4.3 0.00 0.00 0.00 58 1011.2
20260505121603 60 82 2.6 4.3 0.00 0.00 0.00 61 1011.2
20260505121104 60 99 0.9 1.7 0.00 0.00 0.00 59 1011.2
20260505120603 60 300 0.0 2.6 0.00 0.00 0.00 59 1011.2
20260505120103 61 75 0.9 1.7 0.00 0.00 0.00 57 1011.2
20260505115604 61 89 2.6 6.1 0.00 0.00 0.00 56 1011.2
20260505115103 61 88 0.9 2.6 0.00 0.00 0.00 58 1011.2
20260505114604 61 174 2.6 5.2 0.00 0.00 0.00 58 1011.2
20260505114103 61 64 3.5 5.2 0.00 0.00 0.00 58 1011.5
20260505113604 61 340 1.7 4.3 0.00 0.00 0.00 61 1011.5
20260505113103 60 102 0.0 2.6 0.00 0.00 0.00 59 1011.5
20260505112604 60 116 2.6 7.0 0.00 0.00 0.00 60 1011.5
20260505112103 60 82 0.9 4.3 0.00 0.00 0.00 59 1011.5
20260505111604 61 120 2.6 2.6 0.00 0.00 0.00 58 1011.5
20260505111103 61 98 0.9 2.6 0.00 0.00 0.00 59 1011.2
20260505110603 61 250 1.7 5.2 0.00 0.00 0.00 60 1011.5
20260505102105 59 341 1.7 7.0 0.00 0.00 0.00 68 1011.5
20260505101605 58 253 1.7 5.2 0.00 0.00 0.00 67 1011.5
20260505101106 58 152 0.9 6.1 0.00 0.00 0.00 68 1011.9
20260505100606 58 348 5.2 7.0 0.00 0.00 0.00 67 1011.9
20260505100106 58 344 5.2 7.0 0.00 0.00 0.00 68 1011.9
20260505095605 58 332 1.7 4.3 0.00 0.00 0.00 67 1011.9
20260505095106 58 175 2.6 7.8 0.00 0.00 0.00 69 1012.2
20260505094606 58 77 0.9 4.3 0.00 0.00 0.00 68 1011.9
20260505094106 58 326 0.9 5.2 0.00 0.00 0.00 68 1012.2
20260505093603 58 83 3.5 7.8 0.00 0.00 0.00 66 1011.9
20260505093105 58 110 2.6 5.2 0.00 0.00 0.00 70 1011.9
20260505092605 57 58 2.6 5.2 0.00 0.00 0.00 70 1011.9
20260505092105 57 55 2.6 6.1 0.00 0.00 0.00 71 1011.9
20260505091606 56 358 1.7 7.8 0.00 0.00 0.00 72 1012.2
20260505091105 56 100 1.7 6.1 0.00 0.00 0.00 71 1011.9
20260505090606 55 21 0.9 2.6 0.00 0.00 0.00 72 1012.2
20260505085616 55 344 2.6 7.0 0.00 0.00 0.00 74 1012.2
20260505085105 55 2 5.2 8.7 0.00 0.00 0.00 74 1012.2
20260505084603 55 19 2.6 7.8 0.00 0.00 0.00 74 1012.5
20260505084105 55 316 6.1 11.3 0.00 0.00 0.00 73 1012.5
20260505083603 55 2 2.6 6.1 0.00 0.00 0.00 74 1012.5
20260505083104 55 161 0.9 4.3 0.00 0.00 0.00 74 1012.2
20260505082604 55 7 2.6 6.1 0.00 0.00 0.00 73 1012.2
20260505082104 55 357 1.7 6.1 0.00 0.00 0.00 73 1012.2
20260505081603 56 337 5.2 9.6 0.00 0.00 0.00 71 1012.2
20260505081103 56 22 3.5 6.1 0.00 0.00 0.00 71 1012.5
20260505080607 56 298 2.6 7.0 0.00 0.00 0.00 73 1012.2
20260505080104 56 323 2.6 7.0 0.00 0.00 0.00 71 1012.2
20260505075603 56 335 3.5 7.0 0.00 0.00 0.00 73 1012.2
20260505075105 56 97 1.7 4.3 0.00 0.00 0.00 74 1011.9
20260505074603 56 290 6.1 8.7 0.00 0.00 0.00 76 1012.2
20260505074104 56 14 1.7 7.8 0.00 0.00 0.00 75 1012.2
20260505073603 55 10 1.7 1.7 0.00 0.00 0.00 77 1012.2